{"data":{"norad_id":64776,"epoch":"2026-09-18T23:57:02.056608Z","epoch_age_seconds":257389,"freshness":"STALE","line1":"1 64776U 25147X   26261.99794047  .00016412  00000+0  49582-3 0  9999","line2":"2 64776  53.1580  60.9141 0001356  47.1912 312.9204 15.34398422 68336","mean_motion":15.34398422,"eccentricity":0.0001356,"inclination_deg":53.158,"raan_deg":60.9141,"arg_perigee_deg":47.1912,"mean_anomaly_deg":312.9204,"bstar":0.00049582,"rev_number":6833,"period_min":93.847854595878,"perigee_km":461.78031178712,"apogee_km":463.63554893223,"semimajor_km":6840.8449303597,"source":"CELESTRAK","updated_at":"2026-09-21T09:00:35.440429Z"}}